AAL944 KMIA-KJFK

Flight info

Callsign AAL944
Flight time N/A
Altitude 41000
Route FOLZZ3 ALYRA PELCN Y309 FLRDA SAGGY CHIEZ Q161 KALDA Q108 SIE CAMRN5
Aircraft B788/H-SDE1E2E3FGHIJ2J3J4J5M1RWXY/LB1D1

Departure

Time N/A
Airport Miami International Airport (KMIA)

Arrival

Time 2026-05-04 02:52
Airport John F. Kennedy International Airport (KJFK)
Time Latitude Longitude Altitude Speed Heading
2026-05-04 02:07 36.55934 -76.25539 41130 ft 553 kts 22°
2026-05-04 02:07 36.62675 -76.20915 41143 ft 553 kts 22°
2026-05-04 02:08 36.69411 -76.16282 41138 ft 553 kts 22°
2026-05-04 02:08 36.76138 -76.11646 41135 ft 553 kts 21°
2026-05-04 02:09 36.82919 -76.06970 41131 ft 561 kts 22°
2026-05-04 02:09 36.89733 -76.02252 41162 ft 566 kts 22°
2026-05-04 02:10 36.96709 -75.97933 41139 ft 552 kts 14°
2026-05-04 02:10 37.03875 -75.94549 41135 ft 552 kts 14°
2026-05-04 02:11 37.10912 -75.90551 41166 ft 556 kts 17°
2026-05-04 02:11 37.18014 -75.86803 41122 ft 552 kts 15°
2026-05-04 02:12 37.25069 -75.82940 41117 ft 554 kts 17°
2026-05-04 02:12 37.32130 -75.79114 41118 ft 552 kts 15°
2026-05-04 02:13 37.39184 -75.75277 41111 ft 552 kts 16°
2026-05-04 02:13 37.46227 -75.71428 41109 ft 552 kts 15°
2026-05-04 02:14 37.53278 -75.67582 41111 ft 552 kts 16°
2026-05-04 02:14 37.60325 -75.63715 41113 ft 553 kts 16°
2026-05-04 02:15 37.67382 -75.59847 41114 ft 553 kts 16°
2026-05-04 02:15 37.74441 -75.55960 41111 ft 554 kts 16°
2026-05-04 02:16 37.81492 -75.52074 41109 ft 550 kts 16°
2026-05-04 02:16 37.88500 -75.48205 41113 ft 549 kts 16°
2026-05-04 02:17 37.95506 -75.44327 41112 ft 550 kts 16°
2026-05-04 02:17 38.02516 -75.40438 41074 ft 549 kts 16°
2026-05-04 02:18 38.09513 -75.36551 40775 ft 549 kts 16°
2026-05-04 02:18 38.12997 -75.34608 40521 ft 545 kts 16°
2026-05-04 02:18 38.16412 -75.32702 40256 ft 542 kts 16°
2026-05-04 02:19 38.19855 -75.30784 40030 ft 540 kts 15°
2026-05-04 02:19 38.23293 -75.28868 39687 ft 539 kts 15°
2026-05-04 02:19 38.26718 -75.26952 39318 ft 537 kts 15°
2026-05-04 02:19 38.30136 -75.25037 38948 ft 536 kts 15°
2026-05-04 02:20 38.33546 -75.23128 38539 ft 536 kts 15°
2026-05-04 02:20 38.36958 -75.21218 38076 ft 536 kts 15°
2026-05-04 02:20 38.40375 -75.19300 37565 ft 537 kts 15°
2026-05-04 02:20 38.43785 -75.17381 37076 ft 534 kts 15°
2026-05-04 02:21 38.47168 -75.15475 36545 ft 531 kts 14°
2026-05-04 02:21 38.50548 -75.13576 36023 ft 532 kts 14°
2026-05-04 02:21 38.53940 -75.11669 35516 ft 533 kts 14°
2026-05-04 02:21 38.57334 -75.09752 35019 ft 534 kts 14°
2026-05-04 02:22 38.60735 -75.07828 34524 ft 535 kts 14°
2026-05-04 02:22 38.64134 -75.05906 34088 ft 534 kts 14°
2026-05-04 02:22 38.67536 -75.03983 33515 ft 535 kts 14°
2026-05-04 02:22 38.70937 -75.02057 32962 ft 534 kts 14°
2026-05-04 02:23 38.74326 -75.00132 32413 ft 531 kts 14°
2026-05-04 02:23 38.77684 -74.98221 31881 ft 526 kts 14°
2026-05-04 02:23 38.80967 -74.96356 31362 ft 520 kts 14°
2026-05-04 02:23 38.84301 -74.94462 30898 ft 514 kts 14°
2026-05-04 02:24 38.87499 -74.92639 30386 ft 506 kts 14°
2026-05-04 02:24 38.90696 -74.90815 29838 ft 500 kts 14°
2026-05-04 02:24 38.93854 -74.89015 29230 ft 494 kts 14°
2026-05-04 02:24 38.96980 -74.87231 28654 ft 489 kts 14°
2026-05-04 02:25 39.00070 -74.85464 28088 ft 484 kts 15°
2026-05-04 02:25 39.03127 -74.83714 27586 ft 478 kts 15°
2026-05-04 02:25 39.06150 -74.81983 27123 ft 473 kts 15°
2026-05-04 02:25 39.09101 -74.80099 26634 ft 477 kts 22°
2026-05-04 02:26 39.11816 -74.77593 26182 ft 484 kts 32°
2026-05-04 02:26 39.14393 -74.74826 25733 ft 481 kts 32°
2026-05-04 02:26 39.16947 -74.72065 25287 ft 477 kts 32°
2026-05-04 02:26 39.19474 -74.69323 24837 ft 473 kts 32°
2026-05-04 02:27 39.21985 -74.66608 24409 ft 469 kts 32°
2026-05-04 02:27 39.24478 -74.63917 24021 ft 465 kts 32°
2026-05-04 02:27 39.26945 -74.61244 23587 ft 461 kts 32°
2026-05-04 02:27 39.29391 -74.58588 23066 ft 457 kts 33°
2026-05-04 02:28 39.31814 -74.55957 22579 ft 453 kts 33°
2026-05-04 02:28 39.34216 -74.53349 22125 ft 449 kts 33°
2026-05-04 02:28 39.36596 -74.50760 21634 ft 445 kts 33°
2026-05-04 02:28 39.38951 -74.48195 21222 ft 441 kts 33°
2026-05-04 02:29 39.41287 -74.45651 20782 ft 437 kts 33°
2026-05-04 02:29 39.43602 -74.43126 20370 ft 433 kts 34°
2026-05-04 02:29 39.45893 -74.40624 19956 ft 429 kts 34°
2026-05-04 02:29 39.48165 -74.38141 19554 ft 425 kts 34°
2026-05-04 02:30 39.50418 -74.35679 19158 ft 422 kts 34°
2026-05-04 02:30 39.52655 -74.33231 18776 ft 420 kts 34°
2026-05-04 02:30 39.54880 -74.30795 18391 ft 418 kts 35°
2026-05-04 02:30 39.57090 -74.28371 17955 ft 414 kts 35°
2026-05-04 02:31 39.59282 -74.25965 17523 ft 411 kts 35°
2026-05-04 02:31 39.61452 -74.23583 17090 ft 407 kts 35°
2026-05-04 02:31 39.62880 -74.22013 16802 ft 405 kts 36°
2026-05-04 02:31 39.65018 -74.19662 16434 ft 401 kts 36°
2026-05-04 02:32 39.67855 -74.16540 15952 ft 398 kts 36°
2026-05-04 02:32 39.69246 -74.15008 15714 ft 396 kts 36°
2026-05-04 02:32 39.71342 -74.12697 15382 ft 394 kts 36°
2026-05-04 02:32 39.73424 -74.10398 15047 ft 391 kts 36°
2026-05-04 02:33 39.75493 -74.08114 14722 ft 389 kts 36°
2026-05-04 02:33 39.77551 -74.05839 14405 ft 387 kts 37°
2026-05-04 02:33 39.79594 -74.03579 14104 ft 385 kts 37°
2026-05-04 02:33 39.81628 -74.01328 13789 ft 382 kts 37°
2026-05-04 02:34 39.83642 -73.99110 13432 ft 375 kts 35°
2026-05-04 02:34 39.85840 -73.97379 13083 ft 367 kts 24°
2026-05-04 02:34 39.88079 -73.95800 12737 ft 365 kts 25°
2026-05-04 02:34 39.90296 -73.94209 12399 ft 363 kts 25°
2026-05-04 02:35 39.92501 -73.92642 12069 ft 360 kts 25°
2026-05-04 02:35 39.94696 -73.91096 11733 ft 357 kts 25°
2026-05-04 02:35 39.96828 -73.89585 11397 ft 339 kts 25°
2026-05-04 02:35 39.98844 -73.88150 11059 ft 321 kts 25°
2026-05-04 02:36 40.00757 -73.86785 10734 ft 306 kts 24°
2026-05-04 02:36 40.02553 -73.85477 10399 ft 293 kts 24°
2026-05-04 02:36 40.04292 -73.84190 10055 ft 282 kts 24°
2026-05-04 02:36 40.05964 -73.82937 9697 ft 273 kts 24°
2026-05-04 02:37 40.07578 -73.81717 9323 ft 264 kts 24°
2026-05-04 02:37 40.09138 -73.80528 8952 ft 256 kts 24°
2026-05-04 02:37 40.10650 -73.79366 8591 ft 249 kts 24°
2026-05-04 02:37 40.12123 -73.78226 8219 ft 243 kts 24°
2026-05-04 02:38 40.13492 -73.76953 7988 ft 237 kts 33°
2026-05-04 02:38 40.14616 -73.75446 8003 ft 231 kts 44°
2026-05-04 02:38 40.15585 -73.73795 7903 ft 231 kts 46°
2026-05-04 02:38 40.16418 -73.71956 7517 ft 235 kts 57°
2026-05-04 02:39 40.17122 -73.70040 7244 ft 233 kts 58°
2026-05-04 02:39 40.17814 -73.68130 6974 ft 231 kts 57°
2026-05-04 02:39 40.18664 -73.66379 6692 ft 227 kts 47°
2026-05-04 02:39 40.19603 -73.64721 6429 ft 226 kts 46°
2026-05-04 02:40 40.20543 -73.63084 6141 ft 222 kts 46°
2026-05-04 02:40 40.21496 -73.61577 5851 ft 215 kts 41°
2026-05-04 02:40 40.22542 -73.60276 5657 ft 201 kts 31°
2026-05-04 02:40 40.23644 -73.59209 5491 ft 195 kts 28°
2026-05-04 02:41 40.24737 -73.58165 5334 ft 194 kts 28°
2026-05-04 02:41 40.25825 -73.57126 5192 ft 193 kts 28°
2026-05-04 02:41 40.26911 -73.56091 5056 ft 193 kts 28°
2026-05-04 02:41 40.28001 -73.55070 4935 ft 192 kts 26°
2026-05-04 02:42 40.29168 -73.54294 4775 ft 186 kts 13°
2026-05-04 02:42 40.30403 -73.53851 4656 ft 182 kts
2026-05-04 02:42 40.31627 -73.53438 4535 ft 182 kts
2026-05-04 02:42 40.32858 -73.53021 4410 ft 184 kts
2026-05-04 02:43 40.34099 -73.52603 4283 ft 186 kts
2026-05-04 02:43 40.35377 -73.52242 4165 ft 189 kts
2026-05-04 02:43 40.36686 -73.52077 4041 ft 189 kts 358°
2026-05-04 02:43 40.37998 -73.51928 3928 ft 189 kts 358°
2026-05-04 02:44 40.39309 -73.51775 3813 ft 189 kts 358°
2026-05-04 02:44 40.40621 -73.51627 3691 ft 188 kts 357°
2026-05-04 02:44 40.41931 -73.51547 3569 ft 188 kts 355°
2026-05-04 02:44 40.43242 -73.51487 3444 ft 188 kts 355°
2026-05-04 02:45 40.44548 -73.51508 3314 ft 187 kts 352°
2026-05-04 02:45 40.45857 -73.51574 3187 ft 189 kts 351°
2026-05-04 02:45 40.47170 -73.51665 3058 ft 188 kts 349°
2026-05-04 02:45 40.48452 -73.51847 2988 ft 184 kts 347°
2026-05-04 02:46 40.49736 -73.52036 2993 ft 187 kts 347°
2026-05-04 02:46 40.51025 -73.52235 2984 ft 186 kts 347°
2026-05-04 02:46 40.52305 -73.52454 2991 ft 185 kts 344°
2026-05-04 02:46 40.53499 -73.52992 2959 ft 179 kts 325°
2026-05-04 02:47 40.54346 -73.54107 2984 ft 175 kts 309°
2026-05-04 02:47 40.55043 -73.55419 2984 ft 175 kts 301°
2026-05-04 02:47 40.55685 -73.56779 2989 ft 175 kts 300°
2026-05-04 02:47 40.56306 -73.58153 2991 ft 175 kts 299°
2026-05-04 02:48 40.56928 -73.59537 2929 ft 178 kts 299°
2026-05-04 02:48 40.57564 -73.60921 2709 ft 175 kts 299°
2026-05-04 02:48 40.58172 -73.62257 2472 ft 163 kts 299°
2026-05-04 02:48 40.58722 -73.63464 2256 ft 149 kts 298°
2026-05-04 02:49 40.59245 -73.64614 2054 ft 145 kts 298°
2026-05-04 02:49 40.59746 -73.65712 1866 ft 132 kts 298°
2026-05-04 02:49 40.60205 -73.66720 1712 ft 127 kts 297°
2026-05-04 02:49 40.60654 -73.67709 1504 ft 125 kts 297°
2026-05-04 02:50 40.61098 -73.68699 1359 ft 127 kts 295°
2026-05-04 02:50 40.61543 -73.69700 1200 ft 126 kts 296°
2026-05-04 02:50 40.61993 -73.70684 1085 ft 127 kts 296°
2026-05-04 02:50 40.62456 -73.71687 957 ft 131 kts 295°
2026-05-04 02:51 40.62925 -73.72752 767 ft 138 kts 298°
2026-05-04 02:51 40.63409 -73.73815 539 ft 133 kts 300°
2026-05-04 02:51 40.63881 -73.74837 327 ft 128 kts 297°
2026-05-04 02:51 40.64336 -73.75837 127 ft 127 kts 298°
2026-05-04 02:52 40.64753 -73.76778 30 ft 103 kts 298°
2026-05-04 02:52 40.65017 -73.77351 28 ft 50 kts 302°
2026-05-04 02:52 40.65168 -73.77684 29 ft 41 kts 300°
2026-05-04 02:52 40.65295 -73.77967 27 ft 24 kts 297°
2026-05-04 02:53 40.65315 -73.78168 30 ft 21 kts 268°
2026-05-04 02:53 40.65347 -73.78354 30 ft 17 kts 300°
2026-05-04 02:53 40.65346 -73.78489 29 ft 16 kts 243°
2026-05-04 02:53 40.65295 -73.78617 32 ft 15 kts 242°
2026-05-04 02:54 40.65247 -73.78735 30 ft 17 kts 242°
2026-05-04 02:54 40.65217 -73.78879 29 ft 9 kts 257°
2026-05-04 02:54 40.65194 -73.78900 29 ft 5 kts 193°
2026-05-04 02:54 40.65155 -73.78909 29 ft 7 kts 186°
2026-05-04 02:55 40.65041 -73.78937 29 ft 10 kts 214°
2026-05-04 02:55 40.65003 -73.79010 29 ft 10 kts 240°
2026-05-04 02:55 40.64967 -73.79061 29 ft 4 kts 197°
2026-05-04 02:56 40.64933 -73.79061 29 ft 6 kts 174°
2026-05-04 02:56 40.64906 -73.79056 29 ft 0 kts 172°
2026-05-04 02:56 40.64904 -73.79056 29 ft 0 kts 172°